Location: Dodgeville
(42.9600°N, 90.1300°W)
Time: 08:50:03
(UTC-05:00)

Uosat F - Visible Passes

Search period start: 23 August 2017 00:00
Search period end: 02 September 2017 00:00
Orbit: 750 x 762 km, 98.8° (Epoch: 22 August)

Date Brightness Start Highest point End Pass type
(mag) Time Alt. Az. Time Alt. Az. Time Alt. Az.
23 Aug 14.3 20:47:49 10° WSW 20:49:26 11° W 20:51:04 10° WNW visible
26 Aug 13.9 20:26:06 10° SW 20:29:30 18° W 20:32:55 10° NW visible
28 Aug 14.2 20:47:49 10° WSW 20:49:32 12° W 20:51:14 10° WNW visible
29 Aug 13.4 20:05:22 10° SSW 20:09:37 28° W 20:13:54 10° NW visible
31 Aug 13.9 20:26:09 10° SW 20:29:35 18° W 20:33:02 10° NW visible
